Location: Cudham
(51.3000°N, 0.0667°E)
Time: 00:49:20
(UTC+00:00)

NOSS 3-1 (C) - Pass Details

Date: 19 May 2025
Orbit: 632 x 1571 km, 63.4° (Epoch: 17 June)

Event Time Altitude Azimuth Distance (km) Brightness Sun altitude
Rises 22:06:26 0° 228° (SW) 3,014 5.9 -14.8°
Reaches altitude 10° 22:08:34 10° 230° (SW) 2,167 5.2 -14.9°
Maximum altitude 22:13:28 77° 317° (NW) 820 3.2 -15.2°
Drops below altitude 10° 22:19:32 10° 44° (NE) 2,668 6.1 -15.6°
Sets 22:22:25 0° 46° (NE) 3,771 6.9 -15.8°
